Location: Black Creek
(40.9000°S, 175.5500°E)
Time: 09:15:15
(UTC+00:00)

Explorer 7 - Pass Details

Date: 13 November 2024
Orbit: 455 x 598 km, 50.3° (Epoch: 07 December)

Event Time Altitude Azimuth Distance (km) Brightness Sun altitude
Rises 10:33:00 0° 246° (WSW) 2,547 10.9 -27.4°
Reaches altitude 10° 10:35:29 10° 260° (W) 1,643 9.6 -27.6°
Enters shadow 10:35:54 12° 264° (W) 1,509 9.3 -27.6°
